This is the latest recevied weather packets stored in our database for station/object N6GPM. If no packets are shown the sender has not sent any weather packets the latest 10 day(s).
| Time | Temp. | Humidity | Pressure | Rain* | Wind** | Luminosity | Snow |
|---|---|---|---|---|---|---|---|
| 1787455321 | 30° C | 37% | 1018.1 hPa | 0 mm | - | 0 W/m² | - |
| 1787455017 | 30° C | 37% | 1018 hPa | 0 mm | - | 0 W/m² | - |
| 1787454713 | 30° C | 37% | 1017.8 hPa | 0 mm | - | 0 W/m² | - |
| 1787454409 | 30° C | 36% | 1017.7 hPa | 0 mm | - | 0 W/m² | - |
| 1787454109 | 30.56° C | 36% | 1017.8 hPa | 0 mm | - | 0 W/m² | - |
| 1787453804 | 30.56° C | 37% | 1017.6 hPa | 0 mm | - | 0 W/m² | - |
| 1787453500 | 30.56° C | 36% | 1018 hPa | 0 mm | - | 0 W/m² | - |
| 1787453199 | 31.11° C | 36% | 1017.7 hPa | 0 mm | - | 0 W/m² | - |
| 1787452895 | 31.11° C | 35% | 1017.6 hPa | 0 mm | - | 1 W/m² | - |
| 1787452593 | 31.11° C | 35% | 1017.9 hPa | 0 mm | - | 2 W/m² | - |
| 1787452289 | 31.67° C | 34% | 1017.5 hPa | 0 mm | - | 3 W/m² | - |
| 1787451984 | 31.67° C | 32% | 1017.7 hPa | 0 mm | - | 6 W/m² | - |
| 1787451683 | 32.22° C | 29% | 1017.5 hPa | 0 mm | - | 10 W/m² | - |
| 1787451383 | 32.22° C | 27% | 1017.6 hPa | 0 mm | - | 14 W/m² | - |
| 1787451079 | 32.78° C | 26% | 1017.6 hPa | 0 mm | - | 19 W/m² | - |
| 1787450775 | 32.78° C | 26% | 1017.5 hPa | 0 mm | - | 25 W/m² | - |
| 1787450470 | 32.78° C | 25% | 1017.6 hPa | 0 mm | - | 30 W/m² | - |
| 1787450165 | 32.78° C | 24% | 1017.5 hPa | 0 mm | - | 36 W/m² | - |
| 1787449860 | 33.33° C | 25% | 1017.7 hPa | 0 mm | - | 43 W/m² | - |
| 1787449556 | 33.33° C | 24% | 1017.4 hPa | 0 mm | - | 50 W/m² | - |
| 1787449250 | 33.89° C | 23% | 1017.5 hPa | 0 mm | - | 59 W/m² | - |
| 1787448945 | 33.89° C | 23% | 1017.8 hPa | 0 mm | - | 69 W/m² | - |
| 1787448641 | 33.89° C | 24% | 1017.3 hPa | 0 mm | - | 81 W/m² | - |
| 1787448337 | 33.89° C | 23% | 1017.6 hPa | 0 mm | - | 93 W/m² | - |
| 1787448033 | 33.89° C | 23% | 1017.6 hPa | 0 mm | - | 106 W/m² | - |
* Rain latest hour (hover to see other rain measurements)
** Current wind speed in m/s (hover to see current wind gust speed)